Niagara Falls, NY

8:33 AM EST on December 06, 2019 (GMT -0500)
Niagara Falls International

Weather History for KIAG - November, 2019

Change the Weather History Date:

Friday, November 22, 2019

  Actual Average Record
Temperature  
Mean Temperature 40 °F -  
Max Temperature 50 °F 44 °F 64 °F (1999)
Min Temperature 28 °F 30 °F 9 °F (2018)
Degree Days  
Heating Degree Days 25    
Moisture  
Dew Point 32 °F    
Average Humidity 75    
Maximum Humidity 89    
Minimum Humidity 59    
Precipitation  
Precipitation 0.01 in - - ()
Sea Level Pressure  
Sea Level Pressure 29.87 in    
Wind  
Wind Speed 19 mph ()    
Max Wind Speed 26 mph    
Max Gust Speed 40 mph    
Visibility 9.7 miles    
Events Rain    
Averages and records for this station are not official NWS values.
T = Trace of Precipitation, MM = Missing Value Source: Averaged Metar Reports

Daily Weather History Graph

Daily Weather History Graph

Search for Another Location

Airport or City:

Astronomy

Nov. 22, 2019 Rise Set
Actual Time 7:16 AM EST 4:46 PM EST
Civil Twilight 6:45 AM EST 5:17 PM EST
Nautical Twilight 6:10 AM EST 5:52 PM EST
Astronomical Twilight 5:37 AM EST 6:26 PM EST
Moon 2:11 AM EST (11/22) 2:54 PM EST (11/22)
Length of Visible Light 10h 31m
Length of Day
9h 29m
Waning Crescent, 20% of the Moon is Illuminated
Nov 22
Waning Crescent
Nov 26
New
Dec 4
First Quarter
Dec 12
Full
Dec 18
Last Quarter

Hourly Weather History & Observations

Time (EST) Temp. Windchill Dew Point Humidity Pressure Visibility Wind Dir Wind Speed Gust Speed Precip Events Conditions
12:15 AM 50.0 °F - 46.9 °F 89% 29.66 in 4.0 mi SW 21.9 mph 40.3 mph 0.01 in Rain Light Rain
12:26 AM 50.0 °F - 46.9 °F 89% 29.66 in 7.0 mi WSW 26.5 mph 34.5 mph 0.01 in Rain Light Rain
12:53 AM 50.0 °F - 46.9 °F 89% 29.69 in 10.0 mi WSW 25.3 mph 36.8 mph 0.01 in   Overcast
1:07 AM 50.0 °F - 46.9 °F 89% 29.66 in 10.0 mi WSW 24.2 mph 33.4 mph N/A   Overcast
1:49 AM 50.0 °F - 46.4 °F 87% 29.67 in 10.0 mi WSW 20.7 mph 29.9 mph N/A   Overcast
1:53 AM 50.0 °F - 46.0 °F 86% 29.70 in 10.0 mi WSW 25.3 mph 33.4 mph N/A   Overcast
2:53 AM 48.0 °F - 44.1 °F 86% 29.70 in 10.0 mi SW 18.4 mph 25.3 mph N/A   Overcast
3:53 AM 46.0 °F 37.6 °F 42.1 °F 86% 29.71 in 10.0 mi West 24.2 mph 32.2 mph 0.00 in Rain Light Rain
4:53 AM 44.1 °F 34.8 °F 39.0 °F 82% 29.73 in 10.0 mi West 25.3 mph 33.4 mph 0.00 in   Overcast
5:10 AM 43.0 °F 33.5 °F 37.0 °F 80% 29.70 in 10.0 mi West 24.2 mph 35.7 mph N/A   Overcast
5:53 AM 41.0 °F 31.9 °F 35.1 °F 79% 29.75 in 10.0 mi WNW 19.6 mph 27.6 mph N/A   Overcast
6:53 AM 39.9 °F 29.2 °F 33.1 °F 77% 29.78 in 10.0 mi West 25.3 mph 35.7 mph N/A   Overcast
7:00 AM 39.9 °F 30.8 °F 33.1 °F 77% 29.76 in 10.0 mi West 18.4 mph 35.7 mph N/A   Overcast
7:51 AM 39.2 °F 28.3 °F 30.2 °F 70% 29.79 in 10.0 mi West 25.3 mph 33.4 mph N/A   Overcast
7:53 AM 37.9 °F 26.8 °F 30.9 °F 76% 29.83 in 10.0 mi WNW 24.2 mph 33.4 mph 0.00 in Rain Light Rain
8:53 AM 37.0 °F 25.9 °F 30.0 °F 76% 29.87 in 10.0 mi WNW 23.0 mph 31.1 mph 0.00 in   Mostly Cloudy
9:16 AM 37.9 °F 27.1 °F 28.0 °F 68% 29.85 in 10.0 mi WNW 23.0 mph 34.5 mph N/A   Overcast
9:53 AM 37.0 °F 25.6 °F 27.0 °F 67% 29.90 in 10.0 mi WNW 24.2 mph 34.5 mph N/A   Overcast
10:53 AM 37.0 °F 25.4 °F 27.0 °F 67% 29.92 in 10.0 mi West 25.3 mph 32.2 mph N/A   Overcast
11:53 AM 37.0 °F 27.0 °F 25.0 °F 62% 29.93 in 10.0 mi WNW 18.4 mph 31.1 mph N/A   Overcast
12:53 PM 36.0 °F 25.3 °F 25.0 °F 64% 29.94 in 10.0 mi WNW 19.6 mph 31.1 mph 0.00 in   Overcast
1:53 PM 37.0 °F 25.6 °F 24.1 °F 59% 29.96 in 10.0 mi WNW 24.2 mph 33.4 mph N/A   Overcast
2:53 PM 35.1 °F 24.8 °F 24.1 °F 64% 29.99 in 10.0 mi NW 17.3 mph - N/A   Overcast
4:53 PM 34.0 °F 23.8 °F 23.0 °F 64% 30.04 in 10.0 mi WNW 16.1 mph - N/A   Mostly Cloudy
5:53 PM 32.0 °F 21.2 °F 21.0 °F 64% 30.08 in 10.0 mi WNW 16.1 mph - N/A   Mostly Cloudy
6:53 PM 33.1 °F 23.9 °F 21.9 °F 64% 30.09 in 10.0 mi West 12.7 mph - N/A   Overcast
7:53 PM 33.1 °F 23.9 °F 23.0 °F 66% 30.11 in 10.0 mi West 12.7 mph - N/A   Overcast
8:53 PM 30.9 °F 21.7 °F 23.0 °F 72% 30.11 in 10.0 mi West 11.5 mph - N/A   Mostly Cloudy
9:53 PM 32.0 °F 23.0 °F 23.0 °F 69% 30.10 in 10.0 mi West 11.5 mph - N/A   Overcast
10:53 PM 30.0 °F 23.2 °F 21.9 °F 72% 30.10 in 10.0 mi WSW 6.9 mph - N/A   Mostly Cloudy
11:53 PM 28.0 °F 20.8 °F 21.0 °F 75% 30.09 in 10.0 mi SSW 6.9 mph - N/A   Clear